Weather History for KWWR - March, 2014

Change the Weather History Date:

Sunday, March 16, 2014

  Actual Average (KGAG) Record (KGAG)
Temperature  
Mean Temperature 41 °F -  
Max Temperature 50 °F 58 °F - (-1)
Min Temperature 32 °F 32 °F - (-1)
Degree Days  
Heating Degree Days 24    
Moisture  
Dew Point 23 °F    
Average Humidity 56    
Maximum Humidity 87    
Minimum Humidity 27    
Precipitation  
Precipitation 0.00 in - - ()
Sea Level Pressure  
Sea Level Pressure 30.17 in    
Wind  
Wind Speed 23 mph (North)    
Max Wind Speed 31 mph    
Max Gust Speed 48 mph    
Visibility 10 miles    
Events      
Averages and records for this station are not official NWS values.
T = Trace of Precipitation, MM = Missing Value Source: NWS Daily Summary

Daily Weather History Graph

Daily Weather History Graph

Search for Another Location

Airport or City:

Trip Planner

Search our weather history database for the weather conditions in past years. The results will help you decide how hot, cold, wet, or windy it might be!

Date:

Astronomy

Mar. 16, 2014 Rise Set
Actual Time 7:47 AM CDT 7:46 PM CDT
Civil Twilight 7:21 AM CDT 8:12 PM CDT
Nautical Twilight 6:51 AM CDT 8:42 PM CDT
Astronomical Twilight 6:21 AM CDT 9:12 PM CDT
Moon 8:04 PM CDT (3/16) 7:32 AM CDT (3/16)
Length of Visible Light 12h 50m
Length of Day
11h 59m
Full, 100% of the Moon is Illuminated
Mar 16
Full
Mar 16
Full
Mar 23
Last Quarter
Mar 30
New
Apr 7
First Quarter

Hourly Weather History & Observations

Time (CDT) Temp. Windchill Dew Point Humidity Pressure Visibility Wind Dir Wind Speed Gust Speed Precip Events Conditions
12:15 AM 46.4 °F 37.4 °F 26.6 °F 46% 30.04 in 10.0 mi North 28.8 mph 39.1 mph N/A   Mostly Cloudy
12:35 AM 46.4 °F 37.9 °F 26.6 °F 46% 30.04 in 10.0 mi NNW 25.3 mph 35.7 mph N/A   Mostly Cloudy
12:55 AM 44.6 °F 35.7 °F 26.6 °F 49% 30.04 in 10.0 mi NNW 24.2 mph 48.3 mph N/A   Scattered Clouds
1:15 AM 44.6 °F 35.1 °F 24.8 °F 46% 30.05 in 10.0 mi NNW 27.6 mph 34.5 mph N/A   Clear
1:35 AM 42.8 °F 32.3 °F 24.8 °F 49% 30.05 in 10.0 mi NNW 29.9 mph 38.0 mph N/A   Clear
1:55 AM 42.8 °F 32.5 °F 26.6 °F 53% 30.06 in 10.0 mi NNW 28.8 mph 38.0 mph N/A   Clear
2:15 AM 41.0 °F 29.8 °F 24.8 °F 53% 30.07 in 10.0 mi NNW 29.9 mph 39.1 mph N/A   Clear
2:35 AM 39.2 °F 27.4 °F 26.6 °F 61% 30.08 in 10.0 mi NNW 29.9 mph 41.4 mph N/A   Clear
2:55 AM 37.4 °F 24.8 °F 26.6 °F 65% 30.09 in 10.0 mi NNW 31.1 mph 40.3 mph N/A   Clear
3:15 AM 37.4 °F 25.2 °F 26.6 °F 65% 30.10 in 10.0 mi North 28.8 mph 40.3 mph N/A   Clear
3:35 AM 37.4 °F 24.8 °F 26.6 °F 65% 30.10 in 10.0 mi North 31.1 mph 38.0 mph N/A   Clear
3:55 AM 37.4 °F 25.4 °F 26.6 °F 65% 30.10 in 10.0 mi North 27.6 mph 35.7 mph N/A   Clear
4:15 AM 35.6 °F 23.7 °F 26.6 °F 70% 30.11 in 10.0 mi NNW 24.2 mph 31.1 mph N/A   Clear
4:35 AM 35.6 °F 24.5 °F 26.6 °F 70% 30.12 in 10.0 mi NNW 20.7 mph 33.4 mph N/A   Clear
4:55 AM 35.6 °F 24.0 °F 26.6 °F 70% 30.12 in 10.0 mi NNW 23.0 mph 32.2 mph N/A   Clear
5:15 AM 33.8 °F 21.6 °F 26.6 °F 75% 30.13 in 10.0 mi North 23.0 mph 34.5 mph N/A   Clear
5:35 AM 33.8 °F 21.0 °F 26.6 °F 75% 30.14 in 10.0 mi North 25.3 mph 36.8 mph N/A   Mostly Cloudy
5:55 AM 33.8 °F 19.9 °F 26.6 °F 75% 30.15 in 10.0 mi North 31.1 mph 39.1 mph N/A   Overcast
6:15 AM 33.8 °F 20.8 °F 26.6 °F 75% 30.16 in 10.0 mi NNW 26.5 mph 35.7 mph N/A   Mostly Cloudy
6:35 AM 32.0 °F 19.8 °F 28.4 °F 87% 30.16 in 10.0 mi NNW 20.7 mph 31.1 mph N/A   Mostly Cloudy
6:55 AM 33.8 °F 21.9 °F 28.4 °F 81% 30.16 in 10.0 mi NNW 21.9 mph 29.9 mph N/A   Overcast
7:15 AM 32.0 °F 18.9 °F 28.4 °F 87% 30.17 in 10.0 mi NNW 24.2 mph 29.9 mph N/A   Scattered Clouds
7:35 AM 32.0 °F 20.1 °F 28.4 °F 87% 30.18 in 10.0 mi NNW 19.6 mph 27.6 mph N/A   Clear
7:55 AM 33.8 °F 22.2 °F 28.4 °F 81% 30.19 in 10.0 mi NNW 20.7 mph 32.2 mph N/A   Mostly Cloudy
8:15 AM 33.8 °F 20.8 °F 28.4 °F 81% 30.20 in 10.0 mi NNW 26.5 mph 31.1 mph N/A   Overcast
8:35 AM 33.8 °F 20.5 °F 28.4 °F 81% 30.21 in 10.0 mi NNW 27.6 mph 33.4 mph N/A   Overcast
8:55 AM 33.8 °F 20.8 °F 28.4 °F 81% 30.23 in 10.0 mi North 26.5 mph 33.4 mph N/A   Overcast
9:15 AM 33.8 °F 20.8 °F 28.4 °F 81% 30.23 in 10.0 mi NNW 26.5 mph 33.4 mph N/A   Overcast
9:35 AM 33.8 °F 21.0 °F 28.4 °F 81% 30.24 in 10.0 mi North 25.3 mph 34.5 mph N/A   Overcast
9:55 AM 35.6 °F 23.7 °F 28.4 °F 75% 30.26 in 10.0 mi North 24.2 mph 29.9 mph N/A   Overcast
10:15 AM 35.6 °F 24.0 °F 28.4 °F 75% 30.27 in 10.0 mi NNW 23.0 mph 31.1 mph N/A   Overcast
10:35 AM 35.6 °F 23.0 °F 28.4 °F 75% 30.27 in 10.0 mi North 27.6 mph 34.5 mph N/A   Overcast
10:55 AM 35.6 °F 23.7 °F 28.4 °F 75% 30.28 in 10.0 mi North 24.2 mph 33.4 mph N/A   Overcast
11:15 AM 35.6 °F 23.2 °F 28.4 °F 75% 30.28 in 10.0 mi North 26.5 mph 33.4 mph N/A   Overcast
11:35 AM 35.6 °F 24.8 °F 26.6 °F 70% 30.28 in 10.0 mi North 19.6 mph 32.2 mph N/A   Overcast
11:55 AM 37.4 °F 26.4 °F 26.6 °F 65% 30.28 in 10.0 mi North 23.0 mph 32.2 mph N/A   Overcast
12:15 PM 37.4 °F 26.4 °F 26.6 °F 65% 30.28 in 10.0 mi North 23.0 mph 28.8 mph N/A   Overcast
12:35 PM 39.2 °F 28.3 °F 26.6 °F 61% 30.28 in 10.0 mi NNW 25.3 mph 31.1 mph N/A   Overcast
12:55 PM 41.0 °F 31.4 °F 24.8 °F 53% 30.28 in 10.0 mi North 21.9 mph 27.6 mph N/A   Overcast
1:15 PM 41.0 °F 31.1 °F 24.8 °F 53% 30.26 in 10.0 mi NNW 23.0 mph 32.2 mph N/A   Mostly Cloudy
1:35 PM 42.8 °F 34.5 °F 23.0 °F 46% 30.26 in 10.0 mi North 18.4 mph 28.8 mph N/A   Scattered Clouds
1:55 PM 42.8 °F 34.0 °F 23.0 °F 46% 30.24 in 10.0 mi North 20.7 mph 32.2 mph N/A   Clear
2:15 PM 44.6 °F 36.1 °F 23.0 °F 43% 30.23 in 10.0 mi North 21.9 mph 27.6 mph N/A   Clear
2:35 PM 44.6 °F 37.2 °F 21.2 °F 39% 30.22 in 10.0 mi North 17.3 mph 28.8 mph N/A   Clear
2:55 PM 46.4 °F 38.3 °F 19.4 °F 34% 30.21 in 10.0 mi North 23.0 mph 31.1 mph N/A   Clear
3:15 PM 46.4 °F 39.2 °F 17.6 °F 32% 30.19 in 10.0 mi North 18.4 mph 29.9 mph N/A   Clear
3:35 PM 46.4 °F 38.3 °F 17.6 °F 32% 30.19 in 10.0 mi North 23.0 mph 31.1 mph N/A   Clear
3:55 PM 48.2 °F - 17.6 °F 30% 30.18 in 10.0 mi North 19.6 mph 26.5 mph N/A   Clear
4:15 PM 48.2 °F - 17.6 °F 30% 30.18 in 10.0 mi North 20.7 mph 26.5 mph N/A   Clear
4:35 PM 48.2 °F - 15.8 °F 27% 30.17 in 10.0 mi North 17.3 mph 24.2 mph N/A   Clear
4:55 PM 50.0 °F - 17.6 °F 28% 30.17 in 10.0 mi North 15.0 mph 26.5 mph N/A   Clear
5:15 PM 50.0 °F - 17.6 °F 28% 30.16 in 10.0 mi NNW 19.6 mph 25.3 mph N/A   Clear
5:35 PM 50.0 °F - 17.6 °F 28% 30.16 in 10.0 mi North 18.4 mph 26.5 mph N/A   Clear
5:55 PM 50.0 °F - 17.6 °F 28% 30.17 in 10.0 mi North 17.3 mph 21.9 mph N/A   Clear
6:15 PM 48.2 °F - 17.6 °F 30% 30.16 in 10.0 mi NNW 15.0 mph 25.3 mph N/A   Clear
6:35 PM 48.2 °F - 17.6 °F 30% 30.16 in 10.0 mi North 12.7 mph 23.0 mph N/A   Clear
6:55 PM 46.4 °F 40.7 °F 17.6 °F 32% 30.15 in 10.0 mi North 12.7 mph 19.6 mph N/A   Clear
7:15 PM 46.4 °F 41.1 °F 17.6 °F 32% 30.16 in 10.0 mi North 11.5 mph - N/A   Clear
7:35 PM 44.6 °F 41.4 °F 17.6 °F 34% 30.15 in 10.0 mi NNE 5.8 mph - N/A   Clear
7:55 PM 41.0 °F 36.4 °F 17.6 °F 39% 30.16 in 10.0 mi North 6.9 mph - N/A   Clear
8:15 PM 37.4 °F 32.1 °F 17.6 °F 45% 30.15 in 10.0 mi North 6.9 mph - N/A   Clear
8:35 PM 37.4 °F 33.8 °F 17.6 °F 45% 30.15 in 10.0 mi North 4.6 mph - N/A   Clear
8:55 PM 37.4 °F 33.8 °F 17.6 °F 45% 30.16 in 10.0 mi North 4.6 mph - N/A   Clear
9:15 PM 35.6 °F 30.7 °F 17.6 °F 48% 30.16 in 10.0 mi NNE 5.8 mph - N/A   Clear
9:35 PM 35.6 °F 31.7 °F 17.6 °F 48% 30.15 in 10.0 mi NE 4.6 mph - N/A   Clear
9:55 PM 35.6 °F 32.8 °F 19.4 °F 52% 30.14 in 10.0 mi East 3.5 mph - N/A   Clear
10:15 PM 35.6 °F 32.8 °F 17.6 °F 48% 30.15 in 10.0 mi East 3.5 mph - N/A   Clear
10:35 PM 37.4 °F - 17.6 °F 45% 30.14 in 10.0 mi Calm Calm - N/A   Clear
10:55 PM 32.0 °F 28.7 °F 21.2 °F 64% 30.13 in 10.0 mi ESE 3.5 mph - N/A   Clear
11:15 PM 33.8 °F - 19.4 °F 56% 30.12 in 10.0 mi Calm Calm - N/A   Clear
11:35 PM 32.0 °F - 23.0 °F 69% 30.12 in 10.0 mi Calm Calm - N/A   Clear
11:55 PM 32.0 °F 27.5 °F 23.0 °F 69% 30.12 in 10.0 mi WSW 4.6 mph - N/A   Clear